Total_Precipitation_Accumulation
0.04 0.10 0.25 0.48 1.12 1.28 1.01 0.60 0.44 0.36 0.38 0.42 0.47 0.46 0.46 0.54 0.70 1.19 0.72 0.35 0.21 0.19 0.29 0.63 0.83 0.86 0.90 0.95 0.92 0.95 0.96 0.93 1.02 1.02 1.06 1.02 0.99 1.11 1.20 1.29 1.31 1.44 1.44 1.30 1.25 1.12 1.03 1.03 1.01
0.08 0.14 0.30 0.70 1.14 1.08 0.91 0.48 0.36 0.33 0.31 0.42 0.48 0.39 0.34 0.38 0.28 0.28 0.36 0.34 0.21 0.15 0.21 0.46 0.75 0.81 0.83 0.82 0.84 0.86 0.82 0.77 0.86 0.92 0.97 1.01 0.98 1.08 1.20 1.21 1.24 1.43 1.35 1.25 1.18 1.15 0.99 0.90 0.91
0.12 0.19 0.46 0.86 0.71 0.60 0.58 0.33 0.30 0.36 0.44 0.62 0.72 0.49 0.39 0.49 0.33 0.22 0.20 0.18 0.18 0.16 0.20 0.38 0.65 0.77 0.78 0.74 0.81 0.78 0.68 0.71 0.85 0.91 0.91 0.97 1.04 1.12 1.17 1.17 1.30 1.46 1.45 1.34 1.23 1.15 0.98 0.91 0.90
0.12 0.23 0.46 0.53 0.29 0.25 0.32 0.23 0.30 0.39 0.68 0.80 0.82 0.66 0.52 0.46 0.33 0.25 0.15 0.14 0.16 0.16 0.21 0.35 0.57 0.63 0.66 0.62 0.71 0.70 0.69 0.72 0.83 0.95 0.89 0.91 0.99 1.18 1.26 1.25 1.37 1.45 1.41 1.29 1.20 1.06 0.95 0.87 0.85
0.12 0.25 0.50 0.35 0.14 0.14 0.16 0.14 0.21 0.34 0.59 0.80 0.80 0.86 0.80 0.64 0.47 0.33 0.22 0.15 0.14 0.18 0.27 0.31 0.54 0.60 0.66 0.69 0.70 0.71 0.67 0.65 0.77 0.86 0.82 0.88 1.05 1.26 1.39 1.38 1.43 1.42 1.35 1.18 1.08 1.01 0.95 0.89 0.89
0.18 0.27 0.39 0.26 0.15 0.11 0.12 0.13 0.21 0.41 0.63 0.79 0.94 1.02 0.88 0.68 0.50 0.37 0.28 0.27 0.29 0.22 0.30 0.37 0.52 0.60 0.67 0.73 0.70 0.74 0.70 0.68 0.78 0.92 0.89 0.94 1.17 1.34 1.43 1.52 1.57 1.47 1.32 1.09 0.99 0.88 0.82 0.84 0.90
0.17 0.22 0.24 0.18 0.14 0.10 0.11 0.16 0.26 0.41 0.53 0.82 1.09 1.14 0.87 0.78 0.62 0.44 0.44 0.41 0.68 0.40 0.36 0.38 0.47 0.64 0.73 0.81 0.80 0.80 0.80 0.79 0.89 1.06 1.02 1.05 1.18 1.35 1.45 1.54 1.53 1.44 1.29 1.08 0.95 0.82 0.75 0.82 0.85
0.11 0.11 0.14 0.13 0.08 0.07 0.10 0.16 0.27 0.39 0.66 0.93 0.96 1.03 1.02 0.77 0.69 0.68 0.71 0.68 0.83 0.70 0.51 0.49 0.53 0.69 0.78 0.82 0.83 0.87 0.83 0.85 0.91 1.02 1.07 1.25 1.32 1.39 1.44 1.56 1.54 1.42 1.29 1.05 0.95 0.87 0.80 0.86 0.87
0.06 0.11 0.15 0.12 0.04 0.06 0.12 0.21 0.28 0.34 0.55 0.73 0.81 0.77 0.61 0.59 0.75 0.86 0.94 1.00 1.06 1.02 0.91 0.86 0.76 0.73 0.87 0.88 0.85 1.01 1.04 1.07 1.09 1.13 1.31 1.53 1.80 1.82 1.88 1.81 1.70 1.56 1.41 1.31 1.23 1.14 1.03 1.02 0.97
0.05 0.10 0.08 0.04 0.02 0.05 0.11 0.19 0.32 0.41 0.70 1.06 1.09 1.12 0.78 0.80 0.97 1.05 1.06 1.04 1.19 1.31 1.25 1.31 1.11 0.91 0.90 0.87 1.15 1.49 1.49 1.59 1.64 1.71 1.80 2.13 2.30 2.43 2.03 2.11 2.10 2.03 1.99 1.86 1.82 1.83 1.53 1.20 1.04
0.03 0.04 0.03 0.02 0.01 0.02 0.05 0.11 0.15 0.35 0.77 1.21 1.27 1.23 1.03 1.01 1.13 1.25 1.32 1.44 1.58 1.75 1.53 1.37 1.40 1.35 1.35 1.42 1.47 1.61 1.91 2.08 2.12 2.17 2.22 2.43 2.28 2.23 2.06 2.27 2.53 2.41 2.18 1.96 2.15 2.27 1.84 1.72 1.89
0.02 0.02 0.02 0.01 0.01 0.02 0.04 0.12 0.21 0.36 0.79 1.07 0.98 0.86 0.89 1.10 1.29 1.48 1.84 2.07 2.26 2.39 2.32 2.22 2.04 1.96 1.99 1.86 1.68 1.65 1.75 1.84 1.89 2.01 2.10 2.28 2.51 2.46 2.45 2.64 2.50 2.37 2.31 2.49 2.39 2.56 2.40 2.22 2.05
0.02 0.02 0.02 0.02 0.02 0.03 0.07 0.16 0.29 0.42 0.69 0.67 0.59 0.66 1.05 1.31 1.55 1.86 2.10 2.32 2.54 2.90 3.16 3.60 3.38 2.81 2.52 2.27 1.98 1.65 1.71 1.58 1.47 1.60 1.89 2.02 2.21 2.39 2.52 2.37 2.25 1.98 2.12 2.38 2.48 2.24 2.46 2.44 2.41
0.01 0.02 0.04 0.04 0.03 0.05 0.10 0.15 0.37 0.48 0.58 0.65 0.63 0.92 1.38 1.87 2.07 2.31 2.61 3.01 3.31 3.75 3.79 3.93 4.31 3.73 3.05 2.54 2.18 1.90 1.68 1.67 1.60 1.71 1.67 1.86 2.05 2.13 2.19 2.12 2.10 1.99 2.05 2.23 2.23 2.20 2.49 2.59 2.53
0.02 0.05 0.12 0.12 0.08 0.09 0.14 0.29 0.49 0.62 0.64 0.85 0.91 1.14 1.69 2.33 2.33 2.62 2.92 3.41 3.87 4.34 4.46 4.52 4.73 4.37 3.88 3.31 2.70 2.20 2.00 1.74 1.77 1.86 1.64 1.67 1.82 1.87 1.96 1.96 1.91 1.96 1.91 1.94 1.92 1.98 2.21 2.20 2.17
0.03 0.11 0.26 0.22 0.11 0.12 0.19 0.61 0.78 0.69 0.66 0.95 1.17 1.39 1.86 2.51 2.57 2.88 3.34 3.88 4.58 5.01 5.24 5.26 5.01 4.87 4.45 3.81 3.24 2.83 2.56 2.23 1.99 1.87 1.68 1.51 1.58 1.63 1.74 1.64 1.63 1.62 1.57 1.58 1.77 1.84 2.01 2.15 2.19
0.08 0.13 0.24 0.25 0.18 0.15 0.23 0.68 0.72 0.50 0.65 0.93 1.24 1.53 1.83 2.18 2.66 3.24 3.73 4.32 5.25 6.18 6.61 6.38 5.70 5.19 4.67 4.08 3.59 3.43 3.25 2.81 2.33 2.15 1.96 1.76 1.56 1.52 1.61 1.62 1.62 1.37 1.42 1.47 1.44 1.71 1.87 2.11 2.13
0.05 0.09 0.19 0.28 0.21 0.26 0.35 0.46 0.57 0.63 0.81 1.01 1.22 1.39 1.67 1.97 2.39 3.08 3.66 4.35 5.32 6.52 7.22 7.11 6.43 5.54 4.82 4.39 3.94 3.76 3.49 3.03 2.49 2.28 2.17 1.87 1.73 1.52 1.51 1.42 1.37 1.21 1.36 1.55 1.68 2.04 1.96 1.88 1.88
0.04 0.07 0.16 0.24 0.20 0.30 0.37 0.47 0.62 0.79 1.01 1.04 1.12 1.22 1.44 1.74 2.15 2.83 3.52 4.08 4.75 5.51 6.10 5.97 5.34 4.82 4.21 3.68 3.12 3.03 2.88 2.60 2.33 2.09 1.83 1.78 1.74 1.55 1.55 1.45 1.56 1.33 1.33 1.39 1.43 1.61 1.70 1.61 1.64
0.05 0.08 0.14 0.19 0.17 0.17 0.30 0.57 0.73 0.81 0.97 0.92 0.93 0.95 1.14 1.50 2.10 2.89 3.50 3.71 3.71 4.00 4.25 3.76 3.55 3.53 3.12 2.80 2.72 2.59 2.47 2.21 1.98 1.85 1.79 1.48 1.48 1.46 1.38 1.57 1.48 1.39 1.45 1.40 1.41 1.57 1.66 1.61 1.66
0.07 0.09 0.10 0.17 0.18 0.24 0.38 0.74 0.95 0.88 0.87 0.75 0.72 0.94 1.40 1.80 2.24 2.74 2.90 2.91 2.80 2.79 2.78 2.56 2.49 2.78 2.70 2.65 2.57 2.51 2.49 2.37 2.10 1.76 1.72 1.44 1.29 1.32 1.44 1.43 1.50 1.54 1.30 1.44 1.52 1.49 1.53 1.58 1.53
0.08 0.07 0.04 0.05 0.13 0.36 0.53 0.95 1.12 1.03 0.97 0.70 0.74 1.13 1.64 1.94 2.20 2.18 1.78 1.67 1.81 1.90 2.00 2.25 2.32 2.44 2.36 2.40 2.19 1.99 1.84 1.73 1.63 1.55 1.59 1.60 1.41 1.32 1.29 1.32 1.53 1.59 1.37 1.53 1.22 1.30 1.51 1.58 1.43
0.05 0.05 0.03 0.06 0.15 0.40 0.68 1.11 1.31 1.10 0.90 0.67 0.65 0.76 1.15 1.32 1.27 1.05 0.91 0.98 1.21 1.46 1.71 2.10 2.18 2.22 2.13 2.07 2.06 2.08 1.95 1.92 1.79 1.71 1.83 1.83 1.80 1.61 1.36 1.35 1.53 1.63 1.54 1.54 1.42 1.62 1.46 1.36 1.33
0.04 0.05 0.11 0.21 0.38 0.83 0.90 1.00 1.25 1.05 0.84 0.68 0.54 0.54 0.77 0.79 0.64 0.67 0.72 0.92 1.14 1.31 1.42 1.64 1.82 2.01 2.06 2.07 2.12 2.07 2.02 2.07 1.89 1.73 1.65 1.63 1.68 1.63 1.55 1.52 1.70 1.72 1.62 1.60 1.52 1.57 1.49 1.46 1.46
0.04 0.06 0.27 0.61 0.90 1.03 0.76 0.89 1.19 0.81 0.56 0.46 0.35 0.31 0.34 0.39 0.49 0.66 0.74 0.92 1.01 1.11 1.13 1.23 1.36 1.58 1.73 1.81 1.92 1.97 2.01 2.04 1.85 1.74 1.62 1.57 1.47 1.43 1.55 1.64 1.82 1.71 1.64 1.57 1.58 1.59 1.60 1.63 1.65
0.04 0.04 0.11 0.23 0.34 0.55 0.70 1.09 1.17 0.76 0.44 0.27 0.23 0.24 0.24 0.28 0.36 0.42 0.50 0.56 0.68 0.82 1.01 1.15 1.20 1.24 1.28 1.33 1.52 1.71 1.76 1.78 1.71 1.77 1.57 1.47 1.38 1.39 1.53 1.62 1.57 1.54 1.53 1.45 1.59 1.51 1.48 1.52 1.56
0.04 0.03 0.04 0.06 0.09 0.32 0.74 1.02 0.94 0.60 0.43 0.32 0.30 0.33 0.32 0.30 0.35 0.32 0.33 0.41 0.49 0.52 0.66 0.88 0.97 0.99 1.02 1.10 1.24 1.34 1.40 1.52 1.65 1.63 1.46 1.30 1.34 1.37 1.40 1.36 1.37 1.41 1.44 1.53 1.67 1.58 1.52 1.59 1.49
0.05 0.04 0.04 0.06 0.11 0.24 0.58 1.06 1.22 0.85 0.59 0.47 0.48 0.42 0.37 0.33 0.32 0.34 0.36 0.38 0.41 0.44 0.54 0.71 0.86 0.90 0.93 0.99 1.06 1.03 1.18 1.30 1.44 1.48 1.42 1.28 1.25 1.34 1.39 1.36 1.37 1.38 1.31 1.38 1.54 1.48 1.55 1.63 1.62
0.05 0.05 0.06 0.07 0.08 0.16 0.42 0.69 0.70 0.74 0.61 0.44 0.44 0.42 0.40 0.35 0.35 0.41 0.38 0.43 0.39 0.37 0.44 0.55 0.72 0.83 0.81 0.87 0.95 1.04 1.14 1.31 1.37 1.35 1.39 1.35 1.32 1.37 1.40 1.42 1.45 1.43 1.39 1.42 1.50 1.43 1.54 1.61 1.72
0.07 0.08 0.08 0.09 0.09 0.11 0.21 0.36 0.40 0.44 0.54 0.65 0.54 0.51 0.53 0.49 0.40 0.42 0.40 0.42 0.35 0.37 0.44 0.51 0.60 0.71 0.77 0.84 0.94 1.04 1.12 1.21 1.31 1.27 1.35 1.46 1.45 1.47 1.46 1.47 1.53 1.46 1.48 1.53 1.44 1.45 1.52 1.59 1.63